PVN904 SPJC-SPZO

Flight info

Callsign PVN904
Flight time 1h 5m
Altitude 33000
Route PAKOL DCT POVLO DCT DARKI
Aircraft RJ70/M-SDFGIRWY/LB1

Departure

Time 2026-04-24 16:06
Airport Jorge Chávez International Airport (SPJC)

Arrival

Time 2026-04-24 17:11
Airport Alejandro Velasco Astete International Airport (SPZO)
Time Latitude Longitude Altitude Speed Heading
2026-04-24 15:30 -12.02272 -77.10991 116 ft 0 kts 66°
2026-04-24 15:54 -12.02274 -77.10995 119 ft 2 kts 66°
2026-04-24 15:54 -12.02280 -77.11011 115 ft 2 kts 66°
2026-04-24 15:55 -12.02287 -77.11027 118 ft 2 kts 66°
2026-04-24 15:55 -12.02295 -77.11043 118 ft 2 kts 65°
2026-04-24 15:55 -12.02306 -77.11056 115 ft 2 kts 26°
2026-04-24 15:55 -12.02323 -77.11059 119 ft 2 kts
2026-04-24 15:56 -12.02340 -77.11059 119 ft 2 kts 357°
2026-04-24 15:56 -12.02350 -77.11057 117 ft 0 kts 332°
2026-04-24 15:59 -12.02342 -77.11062 119 ft 4 kts 329°
2026-04-24 15:59 -12.02300 -77.11085 116 ft 8 kts 336°
2026-04-24 15:59 -12.02248 -77.11100 118 ft 7 kts 349°
2026-04-24 15:59 -12.02199 -77.11104 118 ft 7 kts
2026-04-24 16:00 -12.02155 -77.11115 119 ft 6 kts 333°
2026-04-24 16:00 -12.02117 -77.11135 118 ft 6 kts 334°
2026-04-24 16:00 -12.02063 -77.11161 116 ft 11 kts 334°
2026-04-24 16:00 -12.01988 -77.11199 118 ft 12 kts 333°
2026-04-24 16:01 -12.01934 -77.11253 118 ft 11 kts 296°
2026-04-24 16:01 -12.01900 -77.11317 117 ft 10 kts 298°
2026-04-24 16:01 -12.01866 -77.11375 119 ft 10 kts 309°
2026-04-24 16:01 -12.01796 -77.11417 119 ft 14 kts 335°
2026-04-24 16:02 -12.01697 -77.11466 119 ft 18 kts 334°
2026-04-24 16:02 -12.01577 -77.11525 119 ft 21 kts 334°
2026-04-24 16:02 -12.01436 -77.11594 119 ft 24 kts 334°
2026-04-24 16:02 -12.01273 -77.11674 120 ft 27 kts 334°
2026-04-24 16:03 -12.01099 -77.11761 120 ft 27 kts 334°
2026-04-24 16:03 -12.00936 -77.11842 118 ft 25 kts 333°
2026-04-24 16:03 -12.00785 -77.11917 116 ft 23 kts 335°
2026-04-24 16:03 -12.00706 -77.11958 118 ft 7 kts 328°
2026-04-24 16:04 -12.00677 -77.11989 116 ft 6 kts 293°
2026-04-24 16:04 -12.00680 -77.12044 120 ft 11 kts 246°
2026-04-24 16:04 -12.00726 -77.12106 119 ft 11 kts 202°
2026-04-24 16:04 -12.00804 -77.12108 116 ft 12 kts 171°
2026-04-24 16:05 -12.01363 -77.11840 119 ft 91 kts 154°
2026-04-24 16:05 -12.02057 -77.11500 118 ft 129 kts 155°
2026-04-24 16:06 -12.03772 -77.10564 584 ft 147 kts 148°
2026-04-24 16:06 -12.04667 -77.10017 962 ft 148 kts 153°
2026-04-24 16:06 -12.06556 -77.09109 1640 ft 152 kts 159°
2026-04-24 16:07 -12.07520 -77.08679 2115 ft 151 kts 157°
2026-04-24 16:07 -12.08498 -77.08241 2517 ft 158 kts 155°
2026-04-24 16:07 -12.10503 -77.07305 3407 ft 161 kts 155°
2026-04-24 16:08 -12.11526 -77.06813 3764 ft 166 kts 154°
2026-04-24 16:08 -12.13798 -77.05710 4128 ft 197 kts 154°
2026-04-24 16:09 -12.15869 -77.03495 4475 ft 243 kts 118°
2026-04-24 16:09 -12.16707 -77.02021 4995 ft 234 kts 121°
2026-04-24 16:09 -12.17511 -77.00655 5693 ft 214 kts 120°
2026-04-24 16:09 -12.18292 -76.99301 6108 ft 232 kts 119°
2026-04-24 16:10 -12.20946 -76.94481 7395 ft 281 kts 118°
2026-04-24 16:11 -12.22866 -76.90940 8195 ft 290 kts 118°
2026-04-24 16:11 -12.23867 -76.89122 8489 ft 297 kts 119°
2026-04-24 16:11 -12.24882 -76.87281 8743 ft 305 kts 118°
2026-04-24 16:12 -12.27004 -76.83423 9268 ft 318 kts 118°
2026-04-24 16:12 -12.28094 -76.81436 9526 ft 323 kts 118°
2026-04-24 16:12 -12.30304 -76.77396 10193 ft 327 kts 118°
2026-04-24 16:13 -12.31419 -76.75360 10518 ft 328 kts 118°
2026-04-24 16:13 -12.33661 -76.71274 11305 ft 330 kts 118°
2026-04-24 16:14 -12.35899 -76.67190 12158 ft 333 kts 118°
2026-04-24 16:14 -12.37031 -76.65126 12558 ft 334 kts 118°
2026-04-24 16:14 -12.39310 -76.60965 13318 ft 336 kts 118°
2026-04-24 16:15 -12.40063 -76.59589 13581 ft 337 kts 118°
2026-04-24 16:15 -12.42739 -76.54673 14435 ft 339 kts 118°
2026-04-24 16:16 -12.45045 -76.50435 15140 ft 342 kts 118°
2026-04-24 16:16 -12.46195 -76.48309 15513 ft 343 kts 118°
2026-04-24 16:17 -12.49692 -76.41917 16595 ft 347 kts 118°
2026-04-24 16:17 -12.52055 -76.37564 17367 ft 353 kts 118°
2026-04-24 16:18 -12.54464 -76.33146 18166 ft 357 kts 117°
2026-04-24 16:18 -12.56876 -76.28694 18902 ft 358 kts 117°
2026-04-24 16:18 -12.58094 -76.26469 19277 ft 359 kts 118°
2026-04-24 16:19 -12.60525 -76.21993 20043 ft 360 kts 117°
2026-04-24 16:19 -12.61718 -76.19776 20444 ft 361 kts 117°
2026-04-24 16:20 -12.64160 -76.15297 21173 ft 360 kts 117°
2026-04-24 16:20 -12.66605 -76.10825 21968 ft 359 kts 117°
2026-04-24 16:20 -12.67811 -76.08592 22367 ft 358 kts 117°
2026-04-24 16:21 -12.70221 -76.04138 23198 ft 357 kts 117°
2026-04-24 16:21 -12.71430 -76.01927 23633 ft 356 kts 117°
2026-04-24 16:21 -12.72627 -75.99710 24034 ft 354 kts 117°
2026-04-24 16:22 -12.73800 -75.97536 24389 ft 353 kts 116°
2026-04-24 16:22 -12.75406 -75.92853 25131 ft 347 kts 103°
2026-04-24 16:22 -12.75982 -75.90466 25495 ft 345 kts 102°
2026-04-24 16:23 -12.76521 -75.88082 25861 ft 343 kts 101°
2026-04-24 16:23 -12.77045 -75.85710 26282 ft 340 kts 101°
2026-04-24 16:23 -12.77557 -75.83349 26603 ft 339 kts 101°
2026-04-24 16:24 -12.78610 -75.78696 27275 ft 336 kts 102°
2026-04-24 16:24 -12.79145 -75.76365 27628 ft 335 kts 102°
2026-04-24 16:24 -12.79679 -75.74053 27974 ft 333 kts 102°
2026-04-24 16:24 -12.80212 -75.71749 28308 ft 332 kts 102°
2026-04-24 16:25 -12.80743 -75.69451 28635 ft 331 kts 102°
2026-04-24 16:25 -12.81281 -75.67170 28935 ft 330 kts 102°
2026-04-24 16:25 -12.81817 -75.64885 29250 ft 329 kts 102°
2026-04-24 16:26 -12.82880 -75.60355 29879 ft 326 kts 102°
2026-04-24 16:26 -12.83397 -75.58134 30187 ft 324 kts 102°
2026-04-24 16:26 -12.84441 -75.53645 30662 ft 323 kts 102°
2026-04-24 16:27 -12.84964 -75.51412 30898 ft 322 kts 102°
2026-04-24 16:27 -12.85486 -75.49187 31122 ft 321 kts 102°
2026-04-24 16:27 -12.86008 -75.46973 31355 ft 319 kts 101°
2026-04-24 16:27 -12.86532 -75.44760 31579 ft 318 kts 101°
2026-04-24 16:28 -12.87053 -75.42564 31785 ft 316 kts 101°
2026-04-24 16:28 -12.87563 -75.40377 31977 ft 315 kts 101°
2026-04-24 16:28 -12.88553 -75.36047 32368 ft 314 kts 101°
2026-04-24 16:29 -12.89052 -75.33871 32572 ft 313 kts 101°
2026-04-24 16:29 -12.89554 -75.31701 32731 ft 314 kts 101°
2026-04-24 16:29 -12.90563 -75.27333 33066 ft 315 kts 101°
2026-04-24 16:30 -12.91570 -75.22965 33333 ft 318 kts 100°
2026-04-24 16:30 -12.92609 -75.18497 33381 ft 327 kts 101°
2026-04-24 16:31 -12.93684 -75.13924 33401 ft 338 kts 100°
2026-04-24 16:31 -12.94790 -75.09153 33409 ft 349 kts 101°
2026-04-24 16:32 -12.95944 -75.04238 33410 ft 360 kts 101°
2026-04-24 16:32 -12.97107 -74.99164 33415 ft 371 kts 101°
2026-04-24 16:33 -12.98324 -74.93997 33418 ft 381 kts 101°
2026-04-24 16:33 -12.99559 -74.88643 33417 ft 390 kts 101°
2026-04-24 16:34 -13.00826 -74.83173 33416 ft 399 kts 101°
2026-04-24 16:34 -13.02123 -74.77559 33410 ft 408 kts 101°
2026-04-24 16:35 -13.03432 -74.71854 33413 ft 414 kts 101°
2026-04-24 16:35 -13.04729 -74.66124 33405 ft 416 kts 101°
2026-04-24 16:36 -13.06038 -74.60351 33391 ft 416 kts 101°
2026-04-24 16:36 -13.07347 -74.54557 33396 ft 416 kts 101°
2026-04-24 16:37 -13.08680 -74.48798 33397 ft 415 kts 101°
2026-04-24 16:37 -13.09979 -74.43082 33384 ft 414 kts 101°
2026-04-24 16:38 -13.11310 -74.37328 33395 ft 414 kts 101°
2026-04-24 16:38 -13.12616 -74.31569 33402 ft 416 kts 101°
2026-04-24 16:39 -13.13948 -74.25801 33392 ft 416 kts 101°
2026-04-24 16:39 -13.15257 -74.20013 33391 ft 415 kts 101°
2026-04-24 16:40 -13.16571 -74.14282 33377 ft 416 kts 101°
2026-04-24 16:40 -13.17892 -74.08500 33379 ft 416 kts 101°
2026-04-24 16:41 -13.19194 -74.02706 33365 ft 416 kts 101°
2026-04-24 16:41 -13.20518 -73.96969 33361 ft 416 kts 101°
2026-04-24 16:42 -13.21812 -73.91173 33369 ft 417 kts 101°
2026-04-24 16:42 -13.23137 -73.85376 33381 ft 417 kts 101°
2026-04-24 16:43 -13.24456 -73.79595 33348 ft 417 kts 101°
2026-04-24 16:43 -13.25758 -73.73825 33340 ft 417 kts 101°
2026-04-24 16:44 -13.27066 -73.68024 33312 ft 416 kts 101°
2026-04-24 16:44 -13.28360 -73.62242 33277 ft 416 kts 101°
2026-04-24 16:45 -13.29660 -73.56451 33259 ft 416 kts 101°
2026-04-24 16:45 -13.30957 -73.50654 33272 ft 417 kts 101°
2026-04-24 16:46 -13.32237 -73.44904 33258 ft 416 kts 101°
2026-04-24 16:46 -13.33517 -73.39107 33264 ft 416 kts 101°
2026-04-24 16:47 -13.34823 -73.33308 33270 ft 417 kts 101°
2026-04-24 16:47 -13.36122 -73.27512 33272 ft 417 kts 102°
2026-04-24 16:48 -13.37436 -73.21703 33269 ft 418 kts 101°
2026-04-24 16:48 -13.38718 -73.15923 33262 ft 418 kts 102°
2026-04-24 16:49 -13.40023 -73.10110 33175 ft 418 kts 101°
2026-04-24 16:49 -13.40680 -73.07181 32964 ft 421 kts 101°
2026-04-24 16:49 -13.41334 -73.04283 32712 ft 413 kts 102°
2026-04-24 16:50 -13.41757 -73.02388 32510 ft 410 kts 101°
2026-04-24 16:50 -13.42593 -72.98588 31931 ft 413 kts 102°
2026-04-24 16:50 -13.43234 -72.95713 31472 ft 413 kts 102°
2026-04-24 16:50 -13.43878 -72.92837 31011 ft 412 kts 102°
2026-04-24 16:51 -13.44499 -72.89994 30555 ft 405 kts 100°
2026-04-24 16:51 -13.44885 -72.87152 30046 ft 398 kts 93°
2026-04-24 16:51 -13.44964 -72.84333 29452 ft 391 kts 88°
2026-04-24 16:51 -13.44865 -72.81567 28914 ft 386 kts 86°
2026-04-24 16:52 -13.44696 -72.78832 28382 ft 381 kts 85°
2026-04-24 16:52 -13.44505 -72.76178 27870 ft 376 kts 84°
2026-04-24 16:52 -13.44301 -72.73500 27376 ft 375 kts 85°
2026-04-24 16:52 -13.44116 -72.70849 26889 ft 370 kts 85°
2026-04-24 16:53 -13.43939 -72.68226 26407 ft 368 kts 85°
2026-04-24 16:53 -13.43772 -72.65604 25949 ft 366 kts 86°
2026-04-24 16:53 -13.43625 -72.63011 25470 ft 363 kts 86°
2026-04-24 16:53 -13.43476 -72.60434 25038 ft 359 kts 86°
2026-04-24 16:54 -13.43372 -72.58748 24757 ft 358 kts 85°
2026-04-24 16:54 -13.43218 -72.56195 24371 ft 356 kts 86°
2026-04-24 16:54 -13.43075 -72.53673 23984 ft 353 kts 86°
2026-04-24 16:54 -13.42869 -72.50349 23394 ft 352 kts 86°
2026-04-24 16:55 -13.42723 -72.47859 22938 ft 348 kts 86°
2026-04-24 16:55 -13.42629 -72.46183 22642 ft 347 kts 86°
2026-04-24 16:55 -13.42433 -72.42919 22052 ft 344 kts 86°
2026-04-24 16:55 -13.42277 -72.40481 21604 ft 341 kts 86°
2026-04-24 16:56 -13.42174 -72.38869 21310 ft 340 kts 86°
2026-04-24 16:56 -13.42002 -72.36457 20870 ft 338 kts 85°
2026-04-24 16:56 -13.41871 -72.34058 20419 ft 335 kts 92°
2026-04-24 16:56 -13.42404 -72.31738 20015 ft 334 kts 108°
2026-04-24 16:57 -13.43168 -72.29536 19641 ft 327 kts 109°
2026-04-24 16:57 -13.43940 -72.27340 19305 ft 319 kts 109°
2026-04-24 16:57 -13.44886 -72.24528 18896 ft 311 kts 106°
2026-04-24 16:57 -13.45302 -72.23102 18693 ft 307 kts 107°
2026-04-24 16:58 -13.45939 -72.21059 18401 ft 301 kts 106°
2026-04-24 16:58 -13.46539 -72.19017 18092 ft 296 kts 106°
2026-04-24 16:58 -13.47145 -72.17016 17784 ft 291 kts 106°
2026-04-24 16:58 -13.47731 -72.15039 17480 ft 287 kts 106°
2026-04-24 16:59 -13.48315 -72.13086 17176 ft 284 kts 107°
2026-04-24 16:59 -13.48887 -72.11164 16883 ft 278 kts 107°
2026-04-24 16:59 -13.49935 -72.07647 16266 ft 241 kts 107°
2026-04-24 17:00 -13.50413 -72.06054 15951 ft 233 kts 107°
2026-04-24 17:00 -13.51346 -72.02911 15397 ft 225 kts 107°
2026-04-24 17:00 -13.51784 -72.01450 15171 ft 204 kts 107°
2026-04-24 17:01 -13.52525 -71.98901 14717 ft 172 kts 106°
2026-04-24 17:01 -13.52856 -71.97758 14558 ft 162 kts 106°
2026-04-24 17:02 -13.53564 -71.95603 14277 ft 159 kts 112°
2026-04-24 17:02 -13.54041 -71.94575 14086 ft 161 kts 116°
2026-04-24 17:02 -13.54562 -71.93566 13932 ft 163 kts 117°
2026-04-24 17:02 -13.55109 -71.92529 13758 ft 166 kts 118°
2026-04-24 17:03 -13.56268 -71.90486 13515 ft 165 kts 118°
2026-04-24 17:03 -13.56744 -71.89416 13408 ft 164 kts 105°
2026-04-24 17:03 -13.56811 -71.88278 13323 ft 155 kts 78°
2026-04-24 17:04 -13.56374 -71.87314 13164 ft 148 kts 50°
2026-04-24 17:04 -13.54681 -71.86229 12949 ft 140 kts
2026-04-24 17:04 -13.53765 -71.86361 12864 ft 134 kts 332°
2026-04-24 17:05 -13.53245 -71.87157 12688 ft 146 kts 278°
2026-04-24 17:05 -13.53466 -71.88194 12388 ft 155 kts 241°
2026-04-24 17:05 -13.55191 -71.89222 12110 ft 145 kts 176°
2026-04-24 17:06 -13.56121 -71.88907 12043 ft 141 kts 141°
2026-04-24 17:06 -13.56708 -71.87128 12127 ft 137 kts 71°
2026-04-24 17:06 -13.56224 -71.86333 12249 ft 134 kts 38°
2026-04-24 17:07 -13.55369 -71.85961 12394 ft 138 kts
2026-04-24 17:07 -13.54487 -71.86250 12502 ft 137 kts 318°
2026-04-24 17:07 -13.54357 -71.88111 12551 ft 145 kts 233°
2026-04-24 17:08 -13.56155 -71.88256 12529 ft 151 kts 128°
2026-04-24 17:08 -13.56389 -71.87247 12529 ft 151 kts 74°
2026-04-24 17:08 -13.55808 -71.86416 12531 ft 148 kts 28°
2026-04-24 17:09 -13.54094 -71.87120 12360 ft 151 kts 288°
2026-04-24 17:09 -13.54106 -71.89288 11579 ft 148 kts 275°
2026-04-24 17:10 -13.53979 -71.90298 11213 ft 141 kts 278°
2026-04-24 17:10 -13.53646 -71.93245 10765 ft 132 kts 276°
2026-04-24 17:11 -13.53508 -71.94523 10822 ft 4 kts 276°
2026-04-24 17:12 -13.53489 -71.94735 10835 ft 13 kts 276°